Kezdőlap
METAR-TAF:

METAR-TAF

Repülőterek :

Pella Municipal Airport

Pella, Iowa, Amerikai Egyesült Államok

földrajzi szélesség: 41-24N, földrajzi hosszúság: 092-56W, magasság: 270 m

Jelenlegi meteorológiai megfigyelések

A jelentés 15 perccel ezelõtt készült, 11:35 UTC
Kelet-északkeleti szél 4 kt
Hőmérséklet 13°C
Páratartalom 62%
Légköri nyomás 1016 hPa
Látótávolság: 16.1 km
Derült ég

METAR: KPEA 171135Z AUTO 07004KT 10SM CLR 13/06 A3000 RMK AO2 T01320057

Idő: 06:50 (11:50 UTC)


TAF: hiányzik

Meteorológiai megfigyelések és előrejelzések több, mint 4000 repülőtéren (METAR és TAF jelentéseket).

A térképen piros és sárga pontok jelzik az elérhető meteorológiai állomásokat.

Mozgassa az egeret a pont fölött, hogy megjelenjen az állomás neve.

Azután kattintson az időjárási megfigyelések és előrejelzések megtekintéséhez.

A térkép megváltoztatása: kattintson a fekete keresztel jelölt zöld gombra ráközelítéshez, a vonallal jelölt zöld gombra távolításhoz, vagy a zöld nyilakra a szomszédos térképek eléréséhez.


METAR-TAF: